This is the latest recevied weather packets stored in our database for station/object HB9SZU-6. If no packets are shown the sender has not sent any weather packets the latest 10 day(s).
| Time | Temp. | Humidity | Pressure | Rain* | Wind** | Luminosity | Snow |
|---|---|---|---|---|---|---|---|
| 1778094772 | 12.78° C | 79% | 1015.7 hPa | 0 mm | - | - | - |
| 1778093873 | 12.78° C | 79% | 1015.4 hPa | 0 mm | - | - | - |
| 1778092973 | 13.33° C | 79% | 1015 hPa | 0 mm | - | - | - |
| 1778092073 | 13.33° C | 79% | 1014.7 hPa | 0 mm | - | - | - |
| 1778091173 | 13.33° C | 78% | 1014.3 hPa | 0 mm | - | - | - |
| 1778090273 | 13.33° C | 78% | 1014.2 hPa | 0 mm | - | - | - |
| 1778089373 | 13.89° C | 79% | 1014.2 hPa | 0 mm | - | - | - |
| 1778088473 | 13.89° C | 79% | 1014.1 hPa | 0 mm | - | - | - |
| 1778087572 | 13.89° C | 80% | 1014 hPa | 0 mm | - | - | - |
| 1778086673 | 13.89° C | 80% | 1014.1 hPa | 0 mm | - | - | - |
| 1778085773 | 14.44° C | 80% | 1014.1 hPa | 0 mm | - | - | - |
| 1778084873 | 14.44° C | 81% | 1013.7 hPa | 0 mm | - | - | - |
| 1778083972 | 13.89° C | 81% | 1013.9 hPa | 0 mm | - | - | - |
| 1778083072 | 13.89° C | 81% | 1014.1 hPa | 0 mm | - | - | - |
| 1778082173 | 13.89° C | 81% | 1014 hPa | 0 mm | - | - | - |
| 1778081273 | 13.89° C | 81% | 1014 hPa | 0 mm | - | - | - |
| 1778080373 | 13.33° C | 81% | 1014.1 hPa | 0 mm | - | - | - |
| 1778079473 | 12.78° C | 81% | 1014.2 hPa | 0.51 mm | - | - | - |
| 1778078572 | 12.22° C | 81% | 1014.7 hPa | 0.51 mm | - | - | - |
| 1778077673 | 12.22° C | 81% | 1014.8 hPa | 0.76 mm | - | - | - |
| 1778076773 | 12.22° C | 81% | 1015.1 hPa | 1.27 mm | - | - | - |
| 1778075872 | 11.67° C | 80% | 1015 hPa | 1.52 mm | - | - | - |
| 1778074973 | 11.67° C | 80% | 1015.3 hPa | 1.52 mm | - | - | - |
| 1778074073 | 11.67° C | 80% | 1015.4 hPa | 1.78 mm | - | - | - |
| 1778073173 | 11.67° C | 80% | 1015.6 hPa | 1.27 mm | - | - | - |
* Rain latest hour (hover to see other rain measurements)
** Current wind speed in m/s (hover to see current wind gust speed)